This demonstration page uses our WeatherBlox Daily Observations layout. Learn more.

Left ArrowRight Arrow

Hourly Observations for October 1, 2021

Temp ( °F °C ) Dew Point ( °F °C ) Humidity (%) Winds ( mph kmh ) Pressure ( in mb ) Visibility ( mi km ) Precip ( " mm )
12:53 am 00:53 Clear 65 18.3 61 16.1 87 87 NNE 3 6 29.96 1015 10 16 N/A
1:53 am 01:53 Clear 63 17.2 60 15.6 90 90 ENE 6 9 29.96 1015 10 16 N/A
2:53 am 02:53 Mostly Cloudy 63 17.2 60 15.6 90 90 E 7 11 29.96 1014 10 16 N/A
3:22 am 03:22 Mostly Cloudy 63 17.2 60 15.6 90 90 E 8 13 29.99 1015 10 16 N/A
3:53 am 03:53 Cloudy 64 17.8 61 16.1 90 90 NE 5 7 29.95 1014 10 16 N/A
4:53 am 04:53 Cloudy 64 17.8 61 16.1 90 90 NNE 5 7 29.94 1014 10 16 N/A
5:53 am 05:53 Cloudy 64 17.8 61 16.1 90 90 WNW 6 9 29.98 1015 10 16 N/A
6:53 am 06:53 Cloudy 64 17.8 61 16.1 90 90 N 7 11 30.00 1016 10 16 N/A
7:14 am 07:14 Cloudy 64 17.8 61 16.1 90 90 NNE 7 11 30.01 1016 10 16 N/A
7:53 am 07:53 Cloudy 63 17.2 60 15.6 90 90 NE 7 11 30.00 1016 10 16 N/A
8:53 am 08:53 Mostly Sunny 64 17.8 61 16.1 90 90 ENE 9 15 29.99 1016 10 16 N/A
9:53 am 09:53 Mostly Cloudy 68 20 60 15.6 76 76 N N/A 30.01 1016 10 16 N/A
10:53 am 10:53 Mostly Cloudy 70 21.1 59 15 68 68 N 8 13 30.01 1016 10 16 N/A
11:53 am 11:53 Cloudy 70 21.1 60 15.6 71 71 N 8 13 30.02 1017 10 16 N/A
12:53 pm 12:53 Mostly Cloudy 71 21.7 59 15 66 66 N N/A 30.01 1016 10 16 N/A
1:53 pm 13:53 Mostly Cloudy 76 24.4 58 14.4 54 54 VRB 6 9 29.98 1015 10 16 N/A
2:53 pm 14:53 Cloudy 75 23.9 58 14.4 55 55 ENE 7 11 29.96 1015 10 16 N/A
3:53 pm 15:53 Mostly Cloudy 76 24.4 58 14.4 54 54 E 8 13 29.94 1014 10 16 N/A
4:53 pm 16:53 Mostly Cloudy 76 24.4 58 14.4 54 54 ESE 9 15 29.93 1014 10 16 N/A
5:53 pm 17:53 Mostly Cloudy 75 23.9 58 14.4 55 55 ESE 8 13 29.93 1014 10 16 N/A
6:53 pm 18:53 Sunny 74 23.3 58 14.4 57 57 E 10 17 29.94 1014 10 16 N/A
7:53 pm 19:53 Clear 70 21.1 60 15.6 71 71 ESE 13 20 29.96 1015 10 16 N/A
8:53 pm 20:53 Clear 67 19.4 60 15.6 79 79 ESE 7 11 29.98 1015 10 16 N/A
9:53 pm 21:53 Partly Cloudy 66 18.9 61 16.1 84 84 SE 9 15 30.00 1016 10 16 N/A
10:53 pm 22:53 Clear 65 18.3 61 16.1 87 87 E 6 9 30.02 1017 10 16 N/A
11:53 pm 23:53 Clear 64 17.8 61 16.1 90 90 ESE 7 11 30.03 1017 8 13 N/A

Powered by AerisWeather